Wind_Speed
4 4 3 2 2 2 1 1 1 0 1 1 1 1 1 1 1 1 1 1 1 1 2 2 2 2 2 2 3 3 3 4 4 4 4 4 4 5 5 5 4 4 4
4 4 4 3 3 3 3 2 1 1 1 2 2 1 2 2 3 3 2 2 2 1 1 2 2 3 3 3 3 4 4 5 5 4 4 4 5 5 5 5 5 5 5
4 4 4 4 4 4 3 2 2 1 2 2 2 2 2 2 2 2 2 2 2 2 2 2 3 3 4 4 4 4 5 5 6 6 5 6 6 6 7 7 7 6 6
4 4 3 4 4 4 3 3 3 2 2 3 2 3 2 2 3 3 3 3 3 3 3 3 4 4 5 5 5 5 5 5 5 6 6 7 7 7 8 8 8 8 8
5 5 4 4 4 4 3 3 3 3 2 2 3 3 3 3 3 3 4 4 4 4 4 4 5 5 5 6 6 6 6 6 6 7 7 7 8 8 8 9 8 8 8
5 5 4 4 4 4 3 3 3 3 2 2 3 3 4 3 3 4 4 4 4 5 6 6 6 6 6 6 6 6 7 7 7 8 8 8 8 8 9 9 9 10 10
6 5 5 5 4 3 3 3 3 3 3 3 3 4 4 4 4 5 5 6 6 6 6 6 6 6 6 6 7 7 7 7 7 8 8 8 9 9 9 9 9 10 11
7 7 6 5 4 3 3 3 3 3 4 4 4 4 4 5 5 6 7 7 7 7 7 7 7 7 8 8 8 8 8 9 8 8 9 10 10 10 10 10 10 10 11
8 7 7 7 5 4 4 4 4 4 4 4 4 4 4 5 5 6 7 7 8 8 7 7 8 8 9 9 8 8 9 9 10 10 11 11 11 12 12 12 12 12 12
8 8 7 7 6 4 4 4 5 5 4 3 3 4 4 5 5 6 6 6 7 7 8 8 8 9 10 10 10 10 11 11 12 12 13 13 14 14 15 14 14 14 14
9 8 8 7 5 4 5 5 5 4 4 4 4 5 4 5 5 5 5 5 6 6 7 7 8 10 10 11 11 12 13 13 14 14 14 14 15 16 16 16 16 16 16
9 9 9 7 6 5 5 5 5 5 5 4 5 6 5 5 5 5 6 6 6 6 7 8 9 9 10 11 11 12 13 14 14 14 14 15 16 16 16 17 17 17 17
9 9 9 8 7 6 6 4 4 5 6 6 6 6 6 7 7 7 7 7 8 8 9 9 9 10 11 11 11 11 12 13 14 15 16 17 17 17 18 18 19 19 20
9 9 8 8 8 8 7 6 6 7 6 6 7 7 7 7 8 7 8 8 9 10 10 10 10 11 12 13 13 14 14 14 15 16 17 19 19 19 20 20 20 20 21
10 9 9 9 9 9 9 9 8 7 7 7 7 6 6 7 7 7 7 8 9 10 10 11 11 11 11 12 13 13 14 15 16 16 18 19 20 21 21 22 23 23 23
10 10 9 9 9 9 8 8 7 7 7 7 7 7 7 7 7 7 8 8 9 10 11 11 12 12 13 13 13 15 16 17 17 18 18 19 20 21 22 23 25 25 25
11 11 11 10 10 9 8 7 7 8 8 8 8 8 7 7 8 8 9 9 9 10 11 12 13 13 14 15 15 16 17 17 18 18 19 20 22 23 24 24 24 24 25
13 12 12 12 12 10 9 9 9 9 9 9 8 8 8 9 9 9 10 10 11 12 13 13 14 15 15 16 17 18 18 18 19 20 20 21 22 23 24 24 24 24 25
14 13 13 13 12 12 11 10 10 10 10 10 9 10 10 10 10 11 12 12 13 14 14 14 15 16 16 17 17 18 19 20 21 21 22 23 23 23 24 25 25 26 26
14 13 12 12 12 12 12 11 11 10 10 11 11 11 12 12 12 13 13 14 15 16 16 16 16 17 18 18 19 19 20 21 22 22 23 24 24 24 25 26 26 26 27
14 13 13 13 12 12 12 12 12 11 12 13 12 12 13 13 13 14 14 15 16 17 18 17 18 18 19 19 20 21 22 22 23 24 24 24 25 25 26 26 27 28 28
14 13 13 13 12 12 13 13 12 12 13 13 12 13 14 15 15 16 16 17 18 19 19 18 19 19 20 21 22 22 23 24 24 25 25 26 26 27 27 28 28 28 29
14 14 13 13 13 13 13 13 13 13 13 13 13 13 14 16 17 18 18 19 20 20 20 20 20 21 22 23 23 24 24 25 26 27 27 27 27 28 28 29 29 29 29
15 15 15 14 15 15 14 15 15 15 15 15 15 15 16 17 19 20 21 21 21 21 21 22 23 23 24 25 25 25 25 26 27 27 27 27 28 28 29 29 30 30 30
16 17 17 16 15 16 15 15 15 16 17 17 17 18 19 19 20 21 21 22 22 22 23 23 24 24 25 26 26 26 26 27 27 27 27 28 28 28 29 29 30 30 31
17 18 18 17 17 17 17 16 17 17 18 18 19 20 21 22 22 22 23 23 23 23 24 25 25 25 26 26 27 27 28 28 27 28 28 29 29 30 30 31 31 32 32
Wind_Direction
23 12 12 16 9 359 349 12 48 346 333 330 296 214 207 262 257 244 246 251 270 277 263 253 233 232 233 231 230 233 222 219 221 220 226 230 229 226 227 228 234 239 243
19 7 357 347 346 343 340 332 324 293 313 308 294 266 267 268 264 246 244 259 271 278 265 262 251 248 246 241 238 231 229 229 231 225 229 228 230 233 235 235 238 241 243
23 11 357 344 343 342 336 322 299 288 280 280 275 268 267 267 267 255 259 265 267 269 267 262 257 251 248 246 244 240 240 239 236 232 232 232 236 240 242 242 241 242 242
12 6 354 344 341 332 330 316 293 278 272 277 278 272 273 271 269 271 273 270 265 270 271 265 262 256 252 250 247 249 245 244 237 233 234 237 238 241 244 246 249 247 245
6 4 356 346 336 322 313 315 292 269 264 267 276 279 275 264 264 267 263 265 264 271 276 269 262 258 253 255 254 252 250 246 243 243 241 242 241 243 246 249 250 247 246
1 1 359 347 334 320 304 298 288 270 262 259 277 281 277 268 265 262 258 262 264 265 269 269 264 255 254 254 252 254 253 252 251 247 247 248 248 248 248 250 250 251 250
3 358 354 348 339 330 313 300 285 268 262 266 277 278 281 280 275 267 268 268 267 265 272 267 263 255 253 251 251 253 254 256 257 252 250 251 251 252 252 252 255 255 253
2 359 359 357 338 330 322 305 288 268 266 270 280 278 271 273 277 274 272 272 270 264 270 271 272 267 264 262 259 258 258 259 258 256 254 252 253 253 255 256 257 256 254
1 359 357 350 334 323 313 297 283 275 268 265 266 270 273 278 273 274 274 264 263 264 264 270 273 269 267 265 267 267 262 259 259 257 258 256 256 257 259 260 259 257 257
357 353 348 344 338 327 316 298 285 277 270 266 264 270 271 276 278 276 270 258 259 260 265 268 272 272 268 267 266 265 265 265 263 262 262 262 260 260 261 261 261 260 261
356 354 348 346 337 326 315 300 286 282 274 266 264 265 269 272 277 273 271 265 260 260 267 273 278 279 272 269 267 264 266 267 267 266 266 265 265 265 263 261 261 263 265
351 350 347 344 336 324 315 305 288 282 273 267 266 266 268 272 275 274 272 272 268 269 272 276 281 281 277 273 268 268 267 268 267 266 267 267 267 267 265 264 262 262 264
341 342 343 340 332 325 316 304 296 287 281 275 271 268 269 275 281 278 272 270 272 276 278 279 280 282 283 282 278 278 276 273 269 266 268 268 268 268 266 266 267 264 263
336 334 333 333 327 318 310 297 298 287 280 278 278 274 274 277 280 278 273 271 274 277 277 279 283 285 284 283 284 282 278 279 279 273 271 269 267 267 266 267 268 266 266
330 329 327 329 329 321 315 305 297 290 290 284 280 283 283 286 286 284 282 280 280 282 286 287 289 291 289 287 285 282 280 282 281 278 273 272 269 270 268 269 268 267 268
323 322 321 322 324 319 317 317 305 302 299 293 283 280 280 285 288 292 291 290 288 288 291 292 292 293 292 291 290 286 286 286 283 280 278 275 274 274 274 272 271 269 268
320 320 317 316 316 316 312 308 303 297 294 295 293 286 282 285 288 293 296 295 294 292 292 290 291 290 290 290 289 289 288 289 289 287 284 281 279 276 275 274 275 271 269
311 310 310 310 310 309 303 301 298 293 293 294 291 293 286 284 286 289 289 290 293 295 295 294 292 291 293 293 291 289 290 290 290 290 288 286 284 281 278 277 278 275 273
306 303 305 305 306 306 301 295 294 294 290 288 286 291 292 286 284 285 286 286 290 294 294 293 294 294 295 295 293 292 292 292 292 290 288 286 285 283 280 279 278 276 275
304 303 304 305 306 306 302 295 292 293 289 288 288 291 294 290 286 287 287 289 292 294 295 294 294 294 295 295 293 292 292 291 291 291 288 286 286 285 283 282 280 277 275
308 306 306 303 302 302 300 298 297 295 292 291 290 293 297 294 292 292 291 292 293 293 293 293 293 294 295 295 293 293 292 292 291 290 288 287 286 286 285 284 283 281 279
310 309 307 305 303 301 300 298 295 293 295 294 293 295 296 299 297 296 295 294 294 293 291 291 291 292 294 294 293 293 292 291 291 289 288 287 287 287 287 286 285 283 281
311 310 308 307 306 304 300 296 292 293 295 294 293 292 296 298 300 302 299 298 298 294 292 292 293 295 295 295 294 293 292 291 290 290 289 288 287 287 287 287 287 285 283
307 308 305 305 305 305 304 299 294 294 293 294 294 294 295 298 301 301 301 300 299 298 296 294 294 296 296 296 296 295 295 293 291 290 290 289 288 287 287 287 288 286 285
304 306 304 305 304 304 303 302 300 297 293 292 292 294 295 296 298 299 299 299 299 299 298 297 298 297 297 296 296 296 295 294 293 293 292 291 291 290 290 289 289 288 287
302 304 302 301 302 302 300 298 297 297 295 294 294 294 296 297 298 297 298 299 299 298 297 298 298 297 297 298 298 297 296 295 295 294 293 292 292 291 291 291 291 290 289
Height
5902 5901 5900 5900 5899 5898 5898 5897 5897 5896 5896 5896 5895 5895 5895 5894 5894 5893 5893 5893 5893 5892 5892 5891 5891 5891 5891 5891 5890 5890 5890 5890 5890 5890 5890 5890 5891 5891 5891 5891 5891 5891 5891
5902 5901 5901 5900 5899 5898 5898 5897 5897 5896 5896 5896 5895 5895 5894 5894 5893 5893 5893 5892 5892 5892 5891 5891 5891 5891 5890 5890 5890 5890 5890 5889 5889 5889 5890 5890 5890 5890 5890 5890 5890 5890 5890
5902 5901 5901 5900 5899 5898 5897 5897 5896 5896 5896 5895 5895 5894 5894 5893 5893 5892 5892 5892 5891 5891 5891 5890 5890 5890 5890 5890 5889 5889 5889 5888 5888 5888 5888 5889 5889 5889 5889 5889 5889 5889 5889
5902 5901 5900 5899 5898 5897 5897 5896 5896 5895 5895 5894 5894 5893 5893 5893 5892 5892 5891 5891 5890 5890 5890 5890 5889 5889 5889 5889 5888 5888 5888 5887 5887 5887 5887 5887 5887 5887 5887 5887 5887 5887 5887
5901 5900 5900 5898 5898 5897 5896 5895 5895 5894 5894 5894 5893 5893 5892 5892 5892 5891 5891 5890 5889 5889 5889 5888 5888 5888 5887 5887 5887 5887 5887 5886 5886 5886 5885 5885 5885 5885 5886 5886 5886 5886 5886
5901 5900 5899 5897 5896 5896 5895 5894 5894 5893 5893 5893 5892 5892 5892 5891 5891 5890 5890 5889 5888 5888 5888 5887 5887 5886 5886 5886 5885 5885 5885 5885 5884 5884 5884 5884 5884 5883 5883 5884 5884 5884 5884
5900 5899 5898 5897 5896 5895 5894 5893 5893 5892 5892 5891 5891 5891 5890 5890 5889 5889 5888 5888 5887 5887 5886 5886 5885 5885 5884 5884 5884 5883 5883 5883 5882 5882 5882 5882 5881 5881 5881 5881 5881 5881 5881
5900 5898 5897 5896 5895 5894 5893 5892 5892 5891 5891 5890 5890 5889 5889 5889 5888 5887 5887 5886 5885 5885 5885 5884 5884 5883 5883 5882 5882 5881 5881 5880 5880 5879 5879 5879 5879 5879 5879 5879 5879 5879 5878
5899 5898 5896 5895 5894 5893 5892 5892 5891 5890 5889 5889 5888 5888 5888 5887 5886 5886 5885 5884 5884 5883 5883 5883 5882 5881 5880 5880 5879 5879 5878 5878 5877 5877 5877 5877 5876 5876 5876 5876 5876 5876 5875
5899 5897 5895 5894 5892 5891 5891 5890 5890 5889 5888 5888 5887 5887 5886 5885 5885 5884 5883 5882 5882 5881 5881 5880 5880 5879 5878 5877 5877 5876 5876 5875 5874 5874 5874 5873 5873 5873 5873 5873 5872 5872 5872
5898 5897 5895 5893 5891 5890 5889 5889 5888 5888 5887 5887 5886 5885 5885 5884 5883 5882 5881 5880 5880 5880 5879 5878 5877 5876 5875 5874 5874 5873 5873 5872 5871 5871 5870 5870 5869 5869 5869 5869 5869 5868 5868
5898 5896 5894 5892 5890 5889 5888 5887 5887 5886 5886 5885 5884 5883 5883 5882 5881 5880 5879 5878 5878 5878 5877 5876 5875 5874 5873 5872 5871 5870 5869 5869 5868 5867 5867 5866 5866 5865 5865 5864 5864 5864 5863
5896 5894 5893 5891 5889 5888 5887 5885 5885 5884 5884 5883 5882 5882 5881 5880 5879 5878 5877 5876 5876 5876 5875 5874 5873 5872 5870 5869 5868 5867 5866 5865 5864 5864 5863 5862 5862 5861 5861 5860 5860 5859 5858
5895 5893 5891 5889 5888 5886 5885 5884 5883 5882 5881 5881 5880 5880 5879 5878 5877 5876 5875 5874 5874 5873 5872 5871 5870 5869 5868 5866 5865 5864 5862 5862 5861 5859 5858 5858 5857 5856 5856 5855 5854 5853 5853
5893 5892 5890 5888 5886 5884 5883 5881 5881 5880 5879 5878 5878 5877 5877 5876 5875 5874 5873 5872 5871 5870 5869 5868 5867 5866 5864 5863 5862 5860 5859 5858 5856 5855 5853 5852 5851 5851 5850 5849 5848 5847 5846
5891 5889 5888 5886 5884 5882 5881 5879 5878 5878 5877 5876 5876 5875 5874 5873 5872 5871 5870 5869 5868 5868 5866 5865 5864 5863 5861 5860 5858 5857 5855 5854 5852 5850 5848 5847 5846 5845 5844 5843 5842 5840 5839
5889 5887 5885 5883 5882 5880 5879 5878 5876 5876 5875 5874 5873 5872 5871 5871 5870 5869 5868 5867 5865 5864 5863 5862 5861 5859 5858 5856 5854 5853 5851 5849 5847 5845 5844 5842 5840 5839 5837 5836 5834 5833 5832
5886 5885 5883 5881 5879 5878 5876 5875 5874 5873 5872 5872 5871 5870 5869 5868 5867 5866 5865 5864 5863 5861 5860 5858 5857 5855 5853 5851 5850 5848 5846 5844 5842 5840 5838 5836 5834 5833 5831 5829 5827 5826 5825
5883 5881 5879 5878 5876 5875 5874 5873 5872 5871 5870 5869 5868 5867 5865 5864 5864 5863 5862 5860 5859 5858 5856 5854 5852 5851 5849 5847 5845 5843 5841 5839 5837 5835 5832 5830 5828 5826 5824 5822 5820 5819 5817
5880 5878 5876 5875 5873 5872 5870 5869 5868 5867 5866 5865 5864 5863 5862 5861 5860 5859 5857 5856 5855 5853 5852 5850 5848 5846 5844 5842 5840 5837 5835 5833 5831 5828 5826 5824 5822 5819 5818 5816 5814 5811 5810
5877 5875 5873 5872 5870 5869 5867 5866 5865 5864 5863 5862 5861 5860 5859 5857 5856 5855 5853 5852 5850 5849 5847 5845 5843 5841 5839 5836 5834 5831 5829 5827 5824 5822 5819 5817 5815 5813 5810 5808 5806 5804 5802
5873 5872 5870 5869 5867 5865 5864 5863 5862 5860 5859 5858 5858 5856 5855 5854 5852 5850 5849 5847 5845 5844 5841 5839 5837 5835 5833 5831 5828 5825 5823 5820 5818 5815 5813 5810 5808 5805 5803 5800 5798 5795 5793
5870 5868 5867 5865 5863 5862 5861 5859 5858 5857 5856 5855 5854 5853 5851 5850 5848 5846 5844 5842 5840 5838 5836 5834 5831 5829 5827 5824 5822 5819 5816 5813 5811 5808 5805 5803 5800 5797 5795 5792 5790 5787 5785
5867 5865 5863 5862 5860 5859 5857 5856 5854 5853 5852 5851 5850 5849 5847 5845 5843 5841 5839 5837 5834 5832 5830 5827 5825 5823 5820 5817 5814 5812 5809 5806 5803 5800 5797 5795 5792 5789 5787 5784 5781 5778 5776
5863 5861 5859 5858 5856 5855 5853 5851 5850 5849 5848 5847 5845 5844 5842 5840 5838 5836 5833 5831 5828 5826 5823 5821 5818 5815 5813 5810 5807 5804 5801 5798 5795 5792 5789 5786 5783 5781 5778 5775 5772 5769 5766
5859 5857 5855 5853 5852 5850 5848 5847 5846 5844 5843 5841 5840 5838 5836 5834 5832 5829 5827 5825 5822 5819 5817 5814 5811 5808 5805 5802 5799 5796 5793 5790 5787 5784 5781 5778 5775 5772 5769 5766 5763 5760 5757